| time (UTC) | temp F | wind direction | speed knots | gust knots | rain 1hr in | rain 24hr in | rain mn in | humidity % | barometer mb |
| 20260903230057 | 90 | 95 | 1.7 | 6.1 | 0.00 | 0.31 | 0.31 | 63 | 1011.1 |
| 20260903224614 | 90 | 145 | 2.6 | 7.0 | 0.00 | 0.31 | 0.31 | 62 | 1011.0 |
| 20260903223057 | 90 | 220 | 2.6 | 6.1 | 0.00 | 0.31 | 0.31 | 63 | 1011.1 |
| 20260903221556 | 91 | 129 | 1.7 | 7.0 | 0.00 | 0.31 | 0.31 | 63 | 1011.1 |
| 20260903220052 | 90 | 169 | 2.6 | 7.0 | 0.00 | 0.31 | 0.31 | 64 | 1011.1 |
| 20260903214608 | 91 | 148 | 0.9 | 6.1 | 0.00 | 0.31 | 0.31 | 64 | 1011.3 |
| 20260903213059 | 90 | 288 | 1.7 | 6.1 | 0.00 | 0.31 | 0.31 | 65 | 1011.4 |
| 20260903211547 | 90 | 128 | 1.7 | 7.8 | 0.00 | 0.31 | 0.31 | 66 | 1011.7 |
| 20260903210120 | 90 | 147 | 0.9 | 5.2 | 0.00 | 0.31 | 0.31 | 66 | 1011.7 |
| 20260903204550 | 90 | 259 | 1.7 | 5.2 | 0.00 | 0.31 | 0.31 | 66 | 1011.9 |
| 20260903203103 | 89 | 258 | 1.7 | 7.0 | 0.00 | 0.31 | 0.31 | 68 | 1012.2 |
| 20260903201544 | 88 | 208 | 0.9 | 5.2 | 0.00 | 0.31 | 0.31 | 70 | 1012.4 |
| 20260903200047 | 88 | 139 | 1.7 | 6.1 | 0.00 | 0.31 | 0.31 | 70 | 1012.4 |
| 20260903194538 | 88 | 127 | 1.7 | 7.8 | 0.00 | 0.31 | 0.31 | 70 | 1012.4 |
| 20260903193034 | 87 | 221 | 1.7 | 7.0 | 0.00 | 0.31 | 0.31 | 71 | 1012.6 |
| 20260903191535 | 85 | 101 | 2.6 | 6.1 | 0.00 | 0.31 | 0.31 | 73 | 1012.9 |
| 20260903190032 | 84 | 84 | 1.7 | 6.1 | 0.00 | 0.31 | 0.31 | 76 | 1013.4 |
| 20260903184529 | 84 | 97 | 2.6 | 7.8 | 0.00 | 0.31 | 0.31 | 75 | 1013.6 |
| 20260903183028 | 85 | 84 | 2.6 | 9.6 | 0.00 | 0.31 | 0.31 | 75 | 1013.6 |
| 20260903181525 | 84 | 179 | 3.5 | 10.4 | 0.00 | 0.31 | 0.31 | 77 | 1013.7 |
| 20260903180026 | 83 | 117 | 3.5 | 9.6 | 0.00 | 0.31 | 0.31 | 78 | 1013.9 |
| 20260903174521 | 82 | 113 | 2.6 | 7.8 | 0.00 | 0.31 | 0.31 | 80 | 1014.0 |
| 20260903173017 | 80 | 94 | 2.6 | 7.8 | 0.00 | 0.31 | 0.31 | 84 | 1014.1 |
| 20260903171515 | 80 | 94 | 1.7 | 10.4 | 0.00 | 0.31 | 0.31 | 84 | 1014.3 |
| 20260903170014 | 80 | 155 | 0.9 | 7.0 | 0.00 | 0.31 | 0.31 | 86 | 1014.2 |
| 20260903164515 | 79 | 150 | 1.7 | 7.0 | 0.00 | 0.31 | 0.31 | 88 | 1014.2 |
| 20260903163013 | 78 | 261 | 1.7 | 6.1 | 0.00 | 0.31 | 0.31 | 88 | 1014.2 |
| 20260903161513 | 78 | 112 | 0.9 | 7.8 | 0.00 | 0.31 | 0.31 | 90 | 1014.0 |
| 20260903160016 | 78 | 175 | 1.7 | 6.1 | 0.00 | 0.31 | 0.31 | 90 | 1014.0 |
| 20260903154511 | 78 | 143 | 1.7 | 7.8 | 0.00 | 0.31 | 0.31 | 91 | 1013.9 |
| 20260903153014 | 78 | 103 | 1.7 | 7.0 | 0.00 | 0.31 | 0.31 | 91 | 1013.7 |
| 20260903151509 | 77 | 213 | 2.6 | 7.0 | 0.00 | 0.31 | 0.31 | 93 | 1013.6 |
| 20260903150009 | 77 | 314 | 0.9 | 5.2 | 0.00 | 0.31 | 0.31 | 94 | 1013.7 |
| 20260903144508 | 77 | 160 | 1.7 | 6.1 | 0.00 | 0.31 | 0.31 | 95 | 1013.6 |
| 20260903143008 | 77 | 124 | 0.0 | 4.3 | 0.00 | 0.31 | 0.31 | 95 | 1013.7 |
| 20260903141508 | 77 | 149 | 0.0 | 3.5 | 0.00 | 0.31 | 0.31 | 95 | 1013.9 |
| 20260903140007 | 77 | 199 | 0.0 | 3.5 | 0.00 | 0.31 | 0.31 | 95 | 1014.0 |
| 20260903134506 | 77 | 167 | 0.9 | 3.5 | 0.01 | 0.31 | 0.31 | 95 | 1013.7 |
| 20260903133003 | 77 | 264 | 0.9 | 5.2 | 0.03 | 0.31 | 0.31 | 96 | 1013.6 |
| 20260903131502 | 77 | 134 | 0.9 | 4.3 | 0.19 | 0.31 | 0.31 | 96 | 1013.6 |
| 20260903130001 | 76 | 115 | 1.7 | 4.3 | 0.28 | 0.31 | 0.31 | 96 | 1013.5 |
| 20260903124605 | 76 | 125 | 0.9 | 3.5 | 0.27 | 0.30 | 0.30 | 95 | 1013.3 |
| 20260903123059 | 76 | 120 | 0.9 | 4.3 | 0.25 | 0.28 | 0.28 | 95 | 1013.4 |
| 20260903121556 | 76 | 257 | 0.9 | 5.2 | 0.09 | 0.12 | 0.12 | 95 | 1013.0 |
| 20260903120104 | 76 | 243 | 0.9 | 3.5 | 0.00 | 0.03 | 0.03 | 95 | 1013.1 |
| 20260903114557 | 76 | 120 | 0.0 | 3.5 | 0.00 | 0.03 | 0.03 | 95 | 1013.1 |
| 20260903113052 | 76 | 124 | 0.0 | 1.7 | 0.00 | 0.03 | 0.03 | 95 | 1012.8 |
| 20260903111551 | 76 | 126 | 0.0 | 2.6 | 0.00 | 0.03 | 0.03 | 95 | 1012.8 |
| 20260903110055 | 75 | 276 | 0.0 | 3.5 | 0.00 | 0.03 | 0.03 | 95 | 1012.8 |
| 20260903104556 | 75 | 216 | 0.0 | 2.6 | 0.00 | 0.03 | 0.03 | 95 | 1012.7 |
| 20260903103052 | 75 | 161 | 0.9 | 4.3 | 0.00 | 0.03 | 0.03 | 95 | 1012.7 |
| 20260903101554 | 75 | 147 | 0.0 | 3.5 | 0.00 | 0.03 | 0.03 | 95 | 1012.6 |
| 20260903100048 | 75 | 97 | 0.0 | 3.5 | 0.00 | 0.03 | 0.03 | 95 | 1012.6 |
| 20260903094547 | 75 | 205 | 0.0 | 2.6 | 0.01 | 0.03 | 0.03 | 95 | 1012.7 |
| 20260903093104 | 75 | 119 | 0.0 | 2.6 | 0.02 | 0.03 | 0.03 | 95 | 1012.6 |
| 20260903091547 | 75 | 88 | 0.0 | 1.7 | 0.02 | 0.03 | 0.03 | 95 | 1012.7 |
| 20260903090051 | 75 | 140 | 0.0 | 4.3 | 0.03 | 0.03 | 0.03 | 94 | 1012.7 |
| 20260903084545 | 75 | 110 | 0.9 | 4.3 | 0.02 | 0.02 | 0.02 | 94 | 1012.5 |
| 20260903083044 | 75 | 111 | 1.7 | 5.2 | 0.01 | 0.01 | 0.01 | 94 | 1012.4 |
| 20260903081543 | 75 | 149 | 0.9 | 6.1 | 0.01 | 0.01 | 0.01 | 93 | 1012.3 |
| 20260903080041 | 76 | 116 | 1.7 | 6.1 | 0.00 | 0.00 | 0.00 | 92 | 1012.3 |
| 20260903074540 | 76 | 86 | 1.7 | 6.1 | 0.00 | 0.00 | 0.00 | 91 | 1012.1 |
| 20260903073040 | 76 | 120 | 0.9 | 6.1 | 0.00 | 0.00 | 0.00 | 90 | 1012.0 |
| 20260903071537 | 77 | 150 | 0.9 | 7.0 | 0.00 | 0.00 | 0.00 | 88 | 1012.1 |
| 20260903070029 | 77 | 100 | 2.6 | 7.0 | 0.00 | 0.00 | 0.00 | 88 | 1012.4 |
| 20260903064526 | 78 | 168 | 0.9 | 6.1 | 0.00 | 0.00 | 0.00 | 86 | 1012.4 |
| 20260903063046 | 79 | 198 | 1.7 | 6.1 | 0.00 | 0.00 | 0.00 | 84 | 1012.2 |
| 20260903061521 | 80 | 86 | 1.7 | 5.2 | 0.00 | 0.00 | 0.00 | 82 | 1012.2 |
| 20260903060020 | 80 | 96 | 2.6 | 7.0 | 0.00 | 0.00 | 0.00 | 80 | 1012.3 |
| 20260903054517 | 80 | 128 | 0.9 | 7.0 | 0.00 | 0.00 | 0.00 | 80 | 1012.4 |
| 20260903053013 | 80 | 113 | 0.9 | 5.2 | 0.00 | 0.00 | 0.00 | 79 | 1012.6 |
| 20260903051511 | 80 | 288 | 1.7 | 6.1 | 0.00 | 0.00 | 0.00 | 79 | 1012.7 |
| 20260903050010 | 80 | 98 | 0.9 | 5.2 | 0.00 | 0.00 | 0.00 | 79 | 1012.9 |
| 20260903044509 | 81 | 193 | 1.7 | 8.7 | 0.00 | 0.00 | 0.00 | 77 | 1013.0 |
| 20260903043008 | 81 | 259 | 0.9 | 5.2 | 0.00 | 0.00 | 0.00 | 76 | 1013.1 |
| 20260903041514 | 81 | 109 | 0.9 | 3.5 | 0.00 | 0.00 | 0.00 | 75 | 1013.1 |
| 20260903040009 | 82 | 148 | 2.6 | 6.1 | 0.00 | 0.00 | 0.00 | 74 | 1013.2 |
| 20260903034515 | 82 | 166 | 1.7 | 6.1 | 0.00 | 0.00 | 0.00 | 74 | 1013.1 |
| 20260903033006 | 83 | 123 | 0.9 | 5.2 | 0.00 | 0.00 | 0.00 | 73 | 1012.9 |
| 20260903031506 | 83 | 148 | 0.0 | 2.6 | 0.00 | 0.00 | 0.00 | 71 | 1013.0 |
| 20260903030008 | 84 | 134 | 1.7 | 6.1 | 0.00 | 0.00 | 0.00 | 70 | 1013.0 |
| 20260903024505 | 84 | 117 | 0.0 | 5.2 | 0.00 | 0.00 | 0.00 | 69 | 1012.8 |
| 20260903023004 | 85 | 140 | 0.9 | 4.3 | 0.00 | 0.00 | 0.00 | 67 | 1012.8 |
| 20260903021511 | 85 | 98 | 0.9 | 5.2 | 0.00 | 0.00 | 0.00 | 66 | 1012.6 |
| 20260903020003 | 86 | 113 | 1.7 | 6.1 | 0.00 | 0.00 | 0.00 | 65 | 1012.3 |
| 20260903014502 | 87 | 95 | 1.7 | 7.0 | 0.00 | 0.00 | 0.00 | 63 | 1012.1 |
| 20260903013002 | 89 | 120 | 0.9 | 7.0 | 0.00 | 0.00 | 0.00 | 61 | 1011.7 |
| 20260903011502 | 90 | 110 | 0.0 | 6.1 | 0.00 | 0.00 | 0.00 | 59 | 1011.4 |
| 20260903010004 | 91 | 117 | 1.7 | 7.0 | 0.00 | 0.00 | 0.00 | 56 | 1011.3 |
| 20260903004501 | 91 | 133 | 1.7 | 7.0 | 0.00 | 0.00 | 0.00 | 55 | 1011.2 |
| 20260903003059 | 92 | 105 | 1.7 | 6.1 | 0.00 | 0.00 | 0.00 | 54 | 1011.1 |
| 20260903001559 | 93 | 114 | 1.7 | 5.2 | 0.00 | 0.00 | 0.00 | 53 | 1011.1 |
| 20260903000059 | 93 | 83 | 1.7 | 7.8 | 0.00 | 0.00 | 0.00 | 54 | 1011.0 |
| 20260902234557 | 93 | 99 | 0.0 | 6.1 | 0.00 | 0.00 | 0.00 | 53 | 1010.9 |
| 20260902233059 | 94 | 105 | 1.7 | 6.1 | 0.00 | 0.00 | 0.00 | 52 | 1010.7 |
| 20260902231605 | 94 | 70 | 0.9 | 5.2 | 0.00 | 0.00 | 0.00 | 52 | 1010.7 |